DW4557 Weather Reports


time (UTC)temp
F
wind
direction
speed
knots
gust
knots
rain 1hr
in
rain 24hr
in
rain mn
in
humidity
%
barometer
mb
20260503223503 60 298 0.9 9.6 0.00 0.00 0.00 37 1015.8
20260503223002 60 295 3.5 9.6 0.00 0.00 0.00 38 1015.8
20260503222502 60 258 5.2 7.0 0.00 0.00 0.00 38 1015.7
20260503222002 60 289 1.7 6.1 0.00 0.00 0.00 38 1015.6
20260503221502 60 324 1.7 6.1 0.00 0.00 0.00 37 1015.7
20260503221002 61 242 2.6 6.1 0.00 0.00 0.00 39 1015.6
20260503220502 61 290 1.7 7.8 0.00 0.00 0.00 38 1015.6
20260503220006 60 306 1.7 9.6 0.00 0.00 0.00 38 1015.6
20260503215502 60 334 2.6 10.4 0.00 0.00 0.00 39 1015.7
20260503215004 61 32 2.6 10.4 0.00 0.00 0.00 38 1015.6
20260503214503 61 313 3.5 7.8 0.00 0.00 0.00 36 1015.7
20260503214004 61 19 0.9 7.8 0.00 0.00 0.00 39 1015.7
20260503213502 61 273 2.6 11.3 0.00 0.00 0.00 37 1015.6
20260503213004 60 305 8.7 11.3 0.00 0.00 0.00 38 1015.6
20260503212504 60 277 2.6 10.4 0.00 0.00 0.00 36 1015.7
20260503212005 60 289 4.3 8.7 0.00 0.00 0.00 37 1015.6
20260503211502 60 269 1.7 10.4 0.00 0.00 0.00 37 1015.6
20260503211004 60 311 3.5 10.4 0.00 0.00 0.00 38 1015.6
20260503210503 60 205 0.9 9.6 0.00 0.00 0.00 36 1015.5
20260503210002 60 323 4.3 9.6 0.00 0.00 0.00 38 1015.6
20260503205502 61 271 1.7 8.7 0.00 0.00 0.00 36 1015.6
20260503205002 61 260 5.2 8.7 0.00 0.00 0.00 37 1015.5
20260503204502 61 330 5.2 9.6 0.00 0.00 0.00 40 1015.6
20260503204002 61 290 3.5 9.6 0.00 0.00 0.00 38 1015.6
20260503203502 61 338 2.6 11.3 0.00 0.00 0.00 40 1015.6
20260503203003 61 14 6.1 13.9 0.00 0.00 0.00 39 1015.7
20260503202502 61 11 7.0 13.9 0.00 0.00 0.00 39 1015.7
20260503202002 61 38 2.6 11.3 0.00 0.00 0.00 38 1015.7
20260503201502 61 350 3.5 13.0 0.00 0.00 0.00 37 1015.8
20260503201002 61 301 6.1 13.0 0.00 0.00 0.00 38 1015.7
20260503200502 61 273 2.6 11.3 0.00 0.00 0.00 38 1015.8
20260503200002 61 252 0.9 9.6 0.00 0.00 0.00 40 1015.9
20260503195503 61 319 1.7 11.3 0.00 0.00 0.00 38 1015.8
20260503195002 61 243 5.2 11.3 0.00 0.00 0.00 41 1015.9
20260503194502 61 309 9.6 11.3 0.00 0.00 0.00 42 1016.0
20260503194002 61 338 4.3 11.3 0.00 0.00 0.00 39 1016.0
20260503193502 61 228 4.3 8.7 0.00 0.00 0.00 39 1016.1
20260503193002 61 284 6.1 13.0 0.00 0.00 0.00 38 1016.1
20260503192502 61 219 0.9 13.0 0.00 0.00 0.00 38 1016.3
20260503192002 61 292 1.7 12.2 0.00 0.00 0.00 40 1016.3
20260503191502 61 23 7.0 12.2 0.00 0.00 0.00 42 1016.3
20260503191004 61 260 2.6 12.2 0.00 0.00 0.00 40 1016.3
20260503190502 61 300 11.3 11.3 0.00 0.00 0.00 40 1016.5
20260503190002 61 223 2.6 14.8 0.00 0.00 0.00 43 1016.5
20260503185502 61 329 9.6 14.8 0.00 0.00 0.00 40 1016.6
20260503185003 61 311 7.0 11.3 0.00 0.00 0.00 43 1016.6
20260503184502 60 263 7.0 14.8 0.00 0.00 0.00 42 1016.6
20260503184002 60 301 7.0 14.8 0.00 0.00 0.00 41 1016.7
20260503183502 60 298 3.5 13.0 0.00 0.00 0.00 43 1016.8
20260503183004 60 268 5.2 12.2 0.00 0.00 0.00 41 1016.7
20260503182503 61 9 7.0 12.2 0.00 0.00 0.00 43 1016.7
20260503182004 60 317 4.3 12.2 0.00 0.00 0.00 41 1016.7
20260503181504 60 313 2.6 14.8 0.00 0.00 0.00 41 1016.8
20260503181004 60 304 8.7 14.8 0.00 0.00 0.00 42 1016.8
20260503180503 59 44 1.7 14.8 0.00 0.00 0.00 41 1016.8
20260503180006 59 285 5.2 12.2 0.00 0.00 0.00 44 1016.7
20260503175502 59 355 4.3 12.2 0.00 0.02 0.00 47 1016.8
20260503175002 59 283 7.0 13.9 0.00 0.02 0.00 43 1016.9
20260503174502 59 300 11.3 14.8 0.00 0.02 0.00 48 1016.9
20260503174002 59 267 6.1 14.8 0.00 0.02 0.00 42 1017.0
20260503173502 59 337 4.3 10.4 0.00 0.02 0.00 42 1016.9
20260503173002 59 325 3.5 12.2 0.00 0.02 0.00 43 1017.0
20260503172502 58 277 9.6 13.0 0.00 0.02 0.00 43 1017.0
20260503172003 59 302 3.5 14.8 0.00 0.02 0.00 46 1017.1
20260503171502 58 299 2.6 14.8 0.00 0.02 0.00 48 1017.1
20260503171002 58 22 4.3 17.4 0.00 0.02 0.00 47 1017.1
20260503170502 58 340 7.0 17.4 0.00 0.02 0.00 44 1017.3
20260503151002 56 311 4.3 11.3 0.00 0.08 0.00 47 1017.5
20260503150501 56 360 4.3 13.0 0.00 0.08 0.00 44 1017.5
20260503131002 53 346 7.0 13.9 0.00 0.10 0.00 57 1017.0
20260503130502 52 19 3.5 15.6 0.00 0.10 0.00 57 1017.1
20260503110502 51 314 2.6 7.8 0.00 0.10 0.00 64 1015.6
20260503090505 51 13 2.6 9.6 0.00 0.10 0.00 75 1013.6
20260503081502 47 284 0.9 2.6 0.00 0.10 0.00 81 1013.2
20260503081002 48 296 0.9 3.5 0.00 0.10 0.00 80 1013.0
20260503080502 48 296 0.0 3.5 0.00 0.10 0.00 79 1012.8
20260503072502 48 298 3.5 6.1 0.00 0.10 0.00 77 1012.5
20260503072002 48 283 2.6 6.1 0.00 0.10 0.00 77 1012.4
20260503071501 49 292 2.6 5.2 0.00 0.10 0.00 76 1012.3
20260503071002 49 309 0.0 4.3 0.00 0.10 0.00 76 1012.3
20260503070500 49 290 1.7 3.5 0.00 0.10 0.00 75 1012.3
20260503055002 51 290 1.7 2.6 0.00 0.10 0.00 71 1011.6
20260503054502 51 290 0.9 3.5 0.00 0.10 0.00 71 1011.7
20260503054002 51 290 1.7 3.5 0.00 0.10 0.00 71 1011.8
20260503053459 51 292 0.0 3.5 0.00 0.10 0.00 72 1011.9
20260503053000 52 289 0.9 4.3 0.00 0.10 0.00 72 1011.9
20260503052502 52 289 2.6 6.1 0.00 0.10 0.00 73 1012.0
20260503052002 52 280 1.7 6.1 0.00 0.10 0.00 74 1012.0
20260503051459 52 273 0.9 3.5 0.00 0.10 0.00 73 1012.0
20260503051002 52 279 0.9 3.5 0.00 0.10 0.00 72 1011.9
20260503050500 52 269 1.7 2.6 0.00 0.10 0.00 72 1012.0
20260503050002 52 291 1.7 2.6 0.00 0.10 0.00 72 1012.0
20260503045500 53 292 0.0 4.3 0.00 0.10 0.00 72 1012.0
20260503045002 53 292 3.5 4.3 0.00 0.10 0.00 71 1012.1
20260503044502 53 294 1.7 4.3 0.00 0.10 0.00 71 1012.0
20260503044002 53 305 0.9 4.3 0.00 0.10 0.00 70 1012.1
20260503043500 53 332 0.0 2.6 0.00 0.10 0.00 69 1012.0
20260503043003 53 332 0.9 2.6 0.00 0.10 0.00 69 1011.9
20260503042503 53 355 1.7 1.7 0.00 0.10 0.00 69 1012.0
20260503042003 54 355 0.9 2.6 0.00 0.10 0.00 70 1012.0
20260503041504 54 355 1.7 2.6 0.00 0.10 0.00 70 1012.0
20260503041004 54 355 0.0 0.0 0.00 0.10 0.00 69 1012.1
20260503040504 53 355 0.0 0.9 0.00 0.10 0.00 69 1012.1
20260503040008 53 355 0.0 0.9 0.00 0.10 0.00 69 1012.1
20260503035503 54 355 0.0 0.0 0.00 0.10 0.10 68 1012.0
20260503035002 54 355 0.0 0.0 0.00 0.10 0.10 68 1011.9
20260503034503 54 355 0.0 2.6 0.00 0.10 0.10 66 1012.0
20260503034004 55 355 0.0 6.1 0.00 0.10 0.10 66 1012.0
20260503033502 54 355 0.9 6.1 0.00 0.10 0.10 67 1012.1
20260503033005 54 317 0.9 2.6 0.00 0.10 0.10 66 1012.0
20260503032503 55 336 0.0 2.6 0.00 0.10 0.10 66 1011.8
20260503032003 55 333 1.7 2.6 0.00 0.10 0.10 66 1011.7
20260503031503 55 333 1.7 2.6 0.00 0.10 0.10 66 1011.8
20260503031003 55 333 0.9 3.5 0.00 0.10 0.10 65 1011.9
20260503030504 55 348 2.6 3.5 0.00 0.10 0.10 65 1011.8
20260503030005 55 335 1.7 4.3 0.00 0.10 0.10 66 1011.7
20260503025503 55 326 0.9 4.3 0.00 0.10 0.10 66 1012.0
20260503025003 55 25 2.6 2.6 0.00 0.10 0.10 67 1012.0
20260503024503 55 25 0.0 2.6 0.00 0.10 0.10 65 1012.1
20260503024003 55 25 0.0 4.3 0.00 0.10 0.10 65 1012.0
20260503023502 55 284 1.7 5.2 0.00 0.10 0.10 64 1012.0
20260503023003 55 299 1.7 6.1 0.00 0.10 0.10 65 1012.0
20260503022502 55 332 4.3 4.3 0.00 0.10 0.10 65 1012.0
20260503022005 55 10 0.0 3.5 0.00 0.10 0.10 65 1012.0
20260503021502 55 10 2.6 7.0 0.00 0.10 0.10 65 1012.0
20260503021004 55 21 1.7 7.0 0.00 0.10 0.10 64 1012.1
20260503020503 55 14 0.9 7.0 0.00 0.10 0.10 64 1012.0
20260503020002 55 30 2.6 7.0 0.00 0.10 0.10 65 1012.1
20260503015502 55 26 0.9 7.0 0.00 0.10 0.10 65 1012.0
20260503015002 55 360 1.7 7.0 0.00 0.10 0.10 63 1012.0
20260503014502 55 360 1.7 5.2 0.00 0.10 0.10 64 1011.9
20260503014002 55 9 1.7 7.0 0.00 0.10 0.10 64 1011.8
20260503013502 55 26 2.6 8.7 0.00 0.10 0.10 63 1011.7
20260503013002 55 27 3.5 8.7 0.00 0.10 0.10 62 1011.6
20260503012502 55 15 3.5 11.3 0.00 0.10 0.10 62 1011.7
20260503012002 55 11 2.6 8.7 0.00 0.10 0.10 62 1011.6
20260503011502 55 48 3.5 8.7 0.00 0.10 0.10 62 1011.7
20260503011002 55 11 0.9 8.7 0.00 0.10 0.10 62 1011.7
20260503010502 55 19 2.6 7.8 0.00 0.10 0.10 63 1011.7
20260503010005 55 57 2.6 8.7 0.00 0.10 0.10 62 1011.7
20260503005502 55 355 5.2 7.8 0.00 0.10 0.10 62 1011.6
20260503005003 55 333 4.3 9.6 0.00 0.10 0.10 62 1011.7
20260503004503 55 5 3.5 9.6 0.00 0.10 0.10 63 1011.5
20260503004003 55 355 0.9 8.7 0.00 0.10 0.10 65 1011.5
20260503003503 55 23 2.6 8.7 0.00 0.10 0.10 65 1011.5
20260503003003 54 5 4.3 8.7 0.00 0.10 0.10 66 1011.3
20260503002502 54 32 1.7 7.8 0.00 0.10 0.10 66 1011.3
20260503002002 54 360 1.7 7.8 0.00 0.10 0.10 67 1011.2
20260503001502 54 16 2.6 7.8 0.00 0.10 0.10 66 1011.1
20260503001002 54 10 1.7 8.7 0.00 0.10 0.10 66 1011.1
20260503000502 54 24 7.0 8.7 0.00 0.10 0.10 66 1011.2
20260503000003 54 21 1.7 8.7 0.00 0.10 0.10 65 1011.0
20260502235502 54 360 7.8 10.4 0.00 0.10 0.10 65 1011.0
20260502235002 54 355 0.9 10.4 0.00 0.10 0.10 66 1010.8
20260502234502 54 351 2.6 7.8 0.00 0.10 0.10 66 1011.0
20260502234002 54 21 1.7 7.8 0.00 0.10 0.10 66 1010.8
20260502233502 54 5 4.3 7.8 0.00 0.10 0.10 65 1010.7
20260502233002 54 13 3.5 7.8 0.00 0.10 0.10 66 1010.8
20260502232502 54 315 1.7 10.4 0.00 0.10 0.10 65 1011.0
20260502232003 54 355 2.6 10.4 0.00 0.10 0.10 66 1010.9
20260502231502 54 13 3.5 10.4 0.00 0.10 0.10 67 1010.9
20260502231002 54 36 2.6 9.6 0.00 0.10 0.10 68 1010.8
20260502230502 54 360 7.0 7.8 0.00 0.10 0.10 69 1010.8
20260502230005 54 18 4.3 8.7 0.00 0.10 0.10 69 1010.7
20260502225502 54 319 3.5 8.7 0.00 0.10 0.10 69 1010.8
20260502225003 54 334 3.5 7.0 0.00 0.10 0.10 70 1010.8
20260502224502 54 345 2.6 11.3 0.00 0.10 0.10 69 1010.9
20260502224003 54 47 7.8 11.3 0.00 0.10 0.10 70 1011.0